CALISTUS D

导读

BASIL卫星是卢旺达(RW)于2025年8月23日成功发射的航天器,是卢旺达航天领域近年推进航天发展的重要成果。当前全球商业航天发射进入加速期,低轨卫星星座建设成为航天竞争与资源抢占的核心方向,该卫星的发射也响应了全球卫星互联网发展浪潮,将助力卢旺达填补本国通信覆盖盲区,提升应急通信保障能力,同时推动卢旺达在遥感观测、灾害监测等领域的能力建设,为非洲地区航天技术应用与数字化发展提供实践支撑。

基本信息
目录编号:
65301
目录名称:
BASIL
国际标识:
2025-185E
轨道中心:
EARTH
卫星名称:
BASIL
卫星全名:
CALISTUS D
卫星状态:
在轨 (已飞行378 天)
发射日期:
2025-08-23 UTC
国别 :
(RW)
星等 :
--
轨道信息
数据来源 国际轨道数据
星历时间: 2026-09-05T12:31:11+0800
9小时前
查看轨道信息
半长轴: 7005.366km
偏心率: 0.0015217
轨道倾角: 97.965°
近地点辐角 172.702°
升交点赤经 330.935°
平近点角 187.441°
近地点: 616.568km
远地点: 637.89km
周期: 97.254分钟
每日圈数: 14.806642
详细信息
使用方式:
暂无
2D轨道图
3D轨道图
轨道高度分析图
轨道倾角分析图
轨道综合分析图
查看轨道综合分析图